Regional Weather Roundup
Issued by NWS

Home | Current Version | Previous Version | Graphics & Text | Print | Product List | Glossary On
Versions: 1 2 3 4 5 6 7 8 9 10 11 12 13 14 15 16 17 18 19 20 21 22 23 24 25 26 27 28 29 30 31 32 33 34 35 36 37 38 39 40 41 42 43 44 45 46 47 48 49 50
086
ASUS43 KMKX 121359
RWRWI

WISCONSIN REGIONAL WEATHER ROUNDUP
NATIONAL WEATHER SERVICE MILWAUKEE/SULLIVAN WI
800 AM CST FRI FEB 12 2016

NOTE: "FAIR" INDICATES FEW OR NO CLOUDS BELOW 12,000 FEET WITH NO
SIGNIFICANT WEATHER AND/OR OBSTRUCTIONS TO VISIBILITY.

WIZ001-002-006>008-014>016-023>028-121500-
NORTHWEST WISCONSIN

CITY           SKY/WX    TMP DP  RH WIND       PRES   REMARKS
SUPERIOR ARPT  CLEAR      1  -8  63 NW18      30.30R WCI -20
ASHLAND        LGT SNOW   4  -2  76 NW14      30.22R VSB 1   WCI -14
HAYWARD        PTCLDY     2  -6  69 NW6       30.20R WCI  -9
SIREN          CLEAR      3  -4  73 NW10      30.27R WCI -13
CUMBERLAND     PTCLDY     3  -4  72 NW14      30.21R WCI -15
RICE LAKE      PTCLDY     5  -3  68 NW10      30.24R WCI -10
CHETEK         PTCLDY     5  -3  70 MISG      30.22R
LADYSMITH      CLEAR      5  -4  68 NW14      30.19R WCI -13
EAU CLAIRE     NOT AVBL
MENOMONIE      PTCLDY    10   0  65 NW12G17   30.26R WCI  -5
NEW RICHMOND   PTCLDY     7  -1  69 NW10      30.27R WCI  -8
OSCEOLA        PTCLDY     8   0  70 NW9G16    30.32R WCI  -6
$$

WIZ003>005-009-010-017-018-121500-
NORTH CENTRAL WISCONSIN

CITY           SKY/WX    TMP DP  RH WIND       PRES   REMARKS
MANITOWISH WTR MOCLDY     2  -4  77 NW13G21   30.04R HAZE    WCI -15
ARBOR VITAE    MOCLDY     5  -2  71 NW12G21   30.04R WCI -11
WOODRUFF       MOCLDY     5  -2  71 NW12G21   30.04R WCI -11
RHINELANDER    MOCLDY     5  -4  66 NW13G22   30.04R WCI -12
EAGLE RIVER    PTCLDY     5  -3  68 NW15G21   30.01R WCI -13
LAND O LAKES   LGT SNOW   6   1  78 NW10G17   30.00R WCI  -8
PHILLIPS       CLEAR      2  -4  75 W6        30.10R WCI -10
TOMAHAWK       CLEAR      4  -3  70 NW8G18    30.08R WCI  -9
MEDFORD        CLEAR      5  -3  71 NW9       30.10R WCI -10
MERRILL        PTCLDY     6  -3  66 NW9       30.10R WCI  -7
$$

WIZ029-030-035-036-043>047-121500-
CENTRAL WISCONSIN

CITY           SKY/WX    TMP DP  RH WIND       PRES   REMARKS
WAUSAU         CLEAR      9  -2  61 NW14G25   30.10R WCI  -7
MOSINEE        PTCLDY     9   0  66 NW14G24   30.11R WCI  -8
MARSHFIELD     CLEAR      9  -2  61 NW22      30.12R WCI -11
STEVENS POINT  CLEAR      9   0  67 NW10      30.12R WCI  -5
WAUPACA        PTCLDY    15   3  60 NW9       30.13R WCI   3
WAUTOMA        NOT AVBL
WISC RAPIDS    PTCLDY    11   2  67 N16       30.15R WCI  -6
CAMP DOUGLAS   NOT AVBL
$$

WIZ011>013-019>022-031-037>040-048>050-121500-
NORTHEAST WISCONSIN

CITY           SKY/WX    TMP DP  RH WIND       PRES   REMARKS
ANTIGO         CLOUDY     6  -2  68 NW15G22   30.04R WCI -11
SHAWANO        CLEAR     13   2  62 W5        30.11R WCI   5
OCONTO         CLEAR     11  -1  59 W12       30.08S WCI  -4
STURGEON BAY   CLEAR     10  -2  56 W13       30.07S WCI  -5
GREEN BAY      PTCLDY    12   1  61 NW13      30.10R WCI  -3
MANITOWOC      NOT AVBL
APPLETON       MOCLDY    12   0  57 W13G20    30.09R WCI  -3
CLINTONVILLE   PTCLDY    12   1  62 NW6       30.11R WCI   3
OSHKOSH        CLOUDY    14   4  64 W16       30.11R WCI  -2
$$

WIZ032>034-041-042-053>061-121500-
SOUTHWEST WISCONSIN

CITY           SKY/WX    TMP DP  RH WIND       PRES   REMARKS
LA CROSSE      CLOUDY    15   7  70 NW17      30.24R WCI  -1
SPARTA         CLOUDY    13   8  78 NW10G16   30.21R WCI   0
VIROQUA        CLOUDY    11   8  88 NW6       30.17R WCI   1
BOSCOBEL       CLEAR     13   7  77 W3        30.24R
PRAIRIE DU CHI PTCLDY    13   6  74 NW9       30.24R WCI   1
PLATTEVILLE    CLOUDY    13  10  85 NW12      30.18R WCI   0
$$

WIZ056-057-062-063-064-067-068-121500-
SOUTH CENTRAL WISCONSIN

CITY           SKY/WX    TMP DP  RH WIND       PRES   REMARKS
REEDSBURG      CLOUDY    12   7  80 W8        30.17R WCI   0
BARABOO/DELLS  CLOUDY    12   6  78 W8        30.15R WCI   0
LONE ROCK      NOT AVBL
MINERAL POINT  FLURRIES  14  10  85 NW9       30.16R WCI   2
MADISON        MOCLDY    14   6  70 NW7       30.16R WCI   4
MIDDLETON      CLOUDY    15   8  75 NW9       30.16S WCI   3
WATERTOWN      CLOUDY    14   7  72 NW10G16   30.14R WCI   2
MONROE         CLOUDY    14  10  85 NW9       30.15R WCI   2
JANESVILLE     CLOUDY    18   9  68 NW13      30.16R WCI   4
$$

WIZ051-052-058>065-066-070>072-121500-
SOUTHEAST WISCONSIN

CITY           SKY/WX    TMP DP  RH WIND       PRES   REMARKS
MILWAUKEE      PTSUNNY   16   3  56 NW12      30.13R WCI   3
WAUKESHA       CLOUDY    12   3  67 W17       30.13R WCI  -5
MILWAUKEE/TIMM CLOUDY    16   1  53 NW14      30.13R WCI   1
RACINE         CLOUDY    17   3  54 NW14      30.13R WCI   3
BURLINGTON     CLOUDY    15   5  66 NW14G22   30.13R WCI   0
KENOSHA        CLOUDY    18   7  62 NW16      30.12R WCI   3
FOND DU LAC    LGT SNOW  14   6  70 NW10      30.12R WCI   1
SHEBOYGAN      MOCLDY    14   4  64 NW14      30.10R WCI  -1
WEST BEND      CLOUDY    14   3  62 W9        30.10S WCI   2
JUNEAU         CLOUDY    13   5  70 W5        30.14R WCI   5
$$

LSZ147-162-121500-
LAKE SUPERIOR

STATION/POSITION TIME  TEMP    WIND        PRES    WAVE
                       AIR SEA DIR/SP/G            HT/PER
                 (UTC) (F)     (DEG/KT/KT) (MB)    (FT/S)
DEVILS ISLAND    1300    5     320/ 28/ 32 1024.2R
PORT WING        1320    4     330/ 18/ 25 1024.4R
SAXON HARBOR     1300    8                 1021.3
$$

LMZ867-665-643>646-121500-
LAKE MICHIGAN

STATION/POSITION TIME  TEMP    WIND        PRES    WAVE
                       AIR SEA DIR/SP/G            HT/PER
                 (UTC) (F)     (DEG/KT/KT) (MB)    (FT/S)
CHAMBERS ISLAND  1300   12     230/  9/ 17 1017.3S
ALGOMA LAKESHORE 1211          300/  4/  8   N/A
KEWAUNEE LAKESHO 1300   13     300/  9/ 14 1017.6S
SHEBOYGAN LAKESH 1300   15     290/ 11/ 13 1020.7R
PORT WASHINGTON  1300   16     310/  8/ 11 1020.7
MILWAUKEE LAKESH 1310   17     300/ 12/ 15   N/A
KENOSHA   LAKESH 1300   18     290/ 10/ 20 1019.6S
$$

TC  - TEMPERATURE IN CELSIUS
VSB - VISIBILITY IN STATUTE MILES
WCI - WIND CHILL INDEX
HX  - HEAT INDEX





USA.gov is the U.S. government's official web portal to all federal, state and local government web resources and services.